Location: Honolulu
(21.3069°N, 157.8583°W)
Time: 20:11:08
(UTC-10:00)

ISS - Visible Passes

Search period start: 29 May 2024 00:00
Search period end: 08 June 2024 00:00
Orbit: 411 x 418 km, 51.6° (Epoch: 30 May)

Date Brightness Start Highest point End Pass type
(mag) Time Alt. Az. Time Alt. Az. Time Alt. Az.
29 May -1.2 21:20:35 10° NNW 21:21:46 20° NNW 21:21:46 20° NNW visible
30 May -2.1 20:32:05 10° N 20:34:46 22° NE 20:34:49 22° NE visible
31 May -1.3 19:44:22 10° NNE 19:45:35 12° NE 19:46:48 10° ENE visible
31 May -1.4 21:19:15 10° WNW 21:20:47 22° WNW 21:20:47 22° WNW visible
01 Jun -3.9 20:29:57 10° NW 20:33:17 86° SW 20:33:54 56° SSE visible
02 Jun -3.0 19:41:00 10° NNW 19:44:09 38° NE 19:47:03 11° ESE visible
03 Jun -1.5 20:29:00 10° WNW 20:31:27 19° SW 20:33:07 14° SSW visible
04 Jun -2.8 19:39:08 10° NW 19:42:18 42° SW 19:45:29 10° SSE visible
06 Jun -0.8 19:39:21 10° WSW 19:40:08 11° WSW 19:40:56 10° SW visible
